Regional Weather Roundup
Issued by NWS

Home | Current Version | Previous Version | Text Only | Print | Product List | Glossary Off
Versions: 1 2 3 4 5 6 7 8 9 10 11 12 13 14 15 16 17 18 19 20 21 22 23 24 25 26 27 28 29 30 31 32 33 34 35 36 37 38 39 40 41 42 43 44 45 46 47 48 49 50

488
ASUS43 KMPX 102310
RWRMN
WEATHER ROUNDUP FOR MINNESOTA
NATIONAL WEATHER SERVICE TWIN CITIES/CHANHASSEN MN
500 PM CST WED FEB 10 2016


NOTE: "FAIR" INDICATES FEW OR NO CLOUDS BELOW 12,000 FEET WITH NO
SIGNIFICANT WEATHER AND/OR OBSTRUCTIONS TO VISIBILITY. N/A MEANS
CURRENT SKY AND/OR WEATHER CONDITIONS ARE NOT AVAILABLE.

MNZ060>063-068>070-110000-
   Twin Cities Metro

CITY           SKY/WX    TMP DP  RH WIND       PRES   REMARKS
TWIN CITIES    CLOUDY    12  -3  51 NE6       30.14R WCI   3
ST PAUL        CLOUDY    11  -4  51 N7        30.17R WCI   0
CRYSTAL        CLOUDY    12  -5  46 N7        30.14R WCI   1
BLAINE         MOCLDY    12  -2  52 N6        30.14R WCI   3
LAKEVILLE      MOCLDY    10  -2  56 NE6       30.13R WCI   1
EDEN PRAIRIE   CLOUDY    13  -3  49 N7        30.13R WCI   3
SOUTH ST PAUL  MOCLDY    11  -4  49 N5        30.15R WCI   3
LAKE ELMO      CLOUDY    10  -2  56 N6        30.16R WCI   1
$$
MNZ001>005-007-008-013>017-022>024-027-028-110000-
   Northwest Minnesota

CITY           SKY/WX    TMP DP  RH WIND       PRES   REMARKS
BEMIDJI        CLEAR      5  -6  61 N5        30.16R WCI  -4
HALLOCK        PTCLDY     7  -6  56 N3        30.27R
ROSEAU         CLEAR      0  -9  65 SE3       30.23R
WARROAD        CLEAR     -2 -11  65 CALM      30.23R
THIEF RVR FALL CLOUDY     7  -6  56 CALM      30.23R
CROOKSTON      CLOUDY     9   0  66 N7        30.26R WCI  -3
FOSSTON        CLOUDY     3  -6  66 N9        30.20R WCI -11
DETROIT LAKES  CLOUDY    12   3  67 N8        30.15R WCI   1
MOORHEAD       CLOUDY    10   3  72 N12       30.21R WCI  -4
PARK RAPIDS    CLOUDY    11  -6  46 NE6       30.12R WCI   1
MAHNOMEN       CLOUDY     7   0  71 N13       30.17R WCI  -9
$$
MNZ006-009>011-018-025>026-110000-
   North Central Minnesota

CITY           SKY/WX    TMP DP  RH WIND       PRES   REMARKS
BAUDETTE       CLEAR     -5 -15  62 NW7       30.20R WCI -19
FLAG ISLAND    CLEAR      0  -9  65 N5        30.23R WCI -10
INTL FALLS     CLEAR     -1 -12  59 CALM      30.18S
WASKISH        CLOUDY     3  -8  60 N5        30.19R WCI  -6
LONGVILLE      CLOUDY     5  -6  61 NW3       30.15R
GRAND RAPIDS   CLEAR      5  -8  56 N7        30.13R WCI  -7
CRANE LAKE     CLEAR     -2 -11  65 NW3       30.20R
ORR            CLEAR      1 -11  55 CALM      30.12R
COOK           CLEAR      3  -9  55 CALM      30.14R
WALKER         FAIR       6  -7  56 N7        30.15R WCI  -6
$$
MNZ012-019>021-037-110000-
   Northeast Minnesota

CITY           SKY/WX    TMP DP  RH WIND       PRES   REMARKS
DULUTH         CLEAR      9 -10  42 N7        30.09R WCI  -2
ELY            CLEAR      1  -8  66 NW5       30.12R WCI  -8
HIBBING        CLEAR      3  -9  57 NW8       30.13R WCI -10
EVELETH        CLEAR      5  -8  56 NW7       30.13R WCI  -7
DULUTH HARBOR  CLEAR     12  -4  48 W7        30.17S WCI   2
TWO HARBORS    CLEAR     12  -4  48 N5        30.10R WCI   4
SILVER BAY     CLEAR      9  -6  52 NW3       30.11R
GRAND MARAIS     N/A      6  -8  52 N6        30.16R WCI  -4
G MARAIS ARPRT CLEAR     -2 -11  65 NW8       30.03R WCI -17
$$
MNZ029>031-032-039>041-046>048-054>057-064-110000-
   West Central Minnesota

CITY           SKY/WX    TMP DP  RH WIND       PRES   REMARKS
FERGUS FALLS   CLOUDY    12   0  57 NE3       30.19R
WHEATON        FLURRIES  12   7  79 E5        30.19R WCI   4
MORRIS         CLOUDY    12   1  62 E3        30.14R
ALEXANDRIA     CLOUDY    12  -2  53 NE5       30.11R WCI   4
ELBOW LAKE     CLOUDY    13  -1  54 CALM      30.15R HAZE
WADENA         CLOUDY    10  -4  52 N5        30.12R WCI   2
GLENWOOD       CLOUDY    10   0  61 NE5       30.12R WCI   2
APPLETON       FLURRIES  14   5  67 CALM      30.15R
BENSON         CLOUDY    16   1  53 CALM      30.14R
ORTONVILLE     FLURRIES  10   3  72 E3        30.14R
MADISON        FLURRIES  12   7  79 E6        30.15R WCI   3
WILLMAR        FAIR      16   3  57 NE6       30.14R WCI   7
$$
MNZ033>034-036-042>043-049>051-058-059-110000-
   Central Minnesota

CITY           SKY/WX    TMP DP  RH WIND       PRES   REMARKS
ST CLOUD       CLOUDY    11  -3  53 N7        30.14R WCI   0
SAUK CENTRE    MOCLDY    10  -3  54 NE5       30.12S WCI   2
PAYNESVILLE    CLOUDY    12   1  60 N3        30.13R
AITKIN         CLOUDY    10 -13  34 CALM      30.13R
PINE RIVER     CLOUDY     9  -4  56 N5        30.17R WCI   0
BRAINERD       CLOUDY     9  -6  50 NW6       30.14R WCI  -1
STAPLES        CLOUDY     9  -8  47 CALM      30.13S
LONG PRAIRIE   CLOUDY    10  -4  52 CALM      30.12S
LITTLE FALLS   CLOUDY    12  -6  44 CALM      30.15R
LITCHFIELD     CLOUDY    14   1  57 NE3       30.13R
BUFFALO        CLOUDY    12  -4  49 NE6       30.15R WCI   2
MAPLE LAKE     CLOUDY    13   1  60 N6        30.14S WCI   4
$$
MNZ037-044-045-052-053-110000-
   East Central Minnesota

CITY           SKY/WX    TMP DP  RH WIND       PRES   REMARKS
PRINCETON      CLOUDY    10  -4  52 N3        30.15R
MORA           CLEAR     12  -6  44 CALM      30.17R
CAMBRIDGE      CLOUDY    12  -2  52 CALM      30.15R
RUSH CITY      PTCLDY     9  -5  53 CALM      30.17R
MOOSE LAKE     CLEAR     12  -8  40 NW6       30.12R WCI   3
HINCKLEY       FAIR      10  -6  48 CALM      30.15R
CLOQUET        CLEAR      9 -11  40 NW7       30.11R WCI  -3
MCGREGOR       CLOUDY    10  -6  48 W5        30.14R WCI   2
$$
MNZ071>073-080-081-089-090-097-098-110000-
   Southwest Minnesota

CITY           SKY/WX    TMP DP  RH WIND       PRES   REMARKS
MONTEVIDEO     FLURRIES  14   5  67 CALM      30.16R
GRANITE FALLS  CLOUDY    16   7  68 NE7       30.14S WCI   6
CANBY          FLURRIES  15  11  82 NE7       30.13S WCI   5
MARSHALL       FLURRIES  11   5  77 E9        30.12R WCI  -2
REDWOOD FALLS  CLOUDY    14   3  61 NE6       30.13R WCI   5
OLIVIA         CLOUDY    16   3  57 NE6       30.12R WCI   7
PIPESTONE      CLOUDY    14   3  62 E12       30.04R WCI   0
WINDOM         FLURRIES  10   5  79 NE12      30.08R WCI  -4
WORTHINGTON    CLOUDY    10   5  79 NE10      30.07R WCI  -3
JACKSON        FLURRIES  12   5  73 E9        30.07R WCI   0
TRACY          FLURRIES  12   7  82 E9        30.10R WCI  -1
SLAYTON        CLOUDY    10   7  87 NE8       30.08R WCI  -2
$$
MNZ065>067-074>077-082>085-091>093-110000-
   South Central Minnesota

CITY           SKY/WX    TMP DP  RH WIND       PRES   REMARKS
MANKATO        CLOUDY    12   0  57 N7        30.12R WCI   2
NEW ULM        CLOUDY    12   1  62 NE8       30.12S WCI   1
ST JAMES       CLOUDY    12   5  73 N5        30.13R WCI   4
FAIRMONT       CLOUDY    12   3  67 NE10      30.08R WCI  -1
GLENCOE        CLOUDY    13   2  61 CALM      30.13R
FARIBAULT        N/A     10   0  61 N7        30.12R WCI   0
OWATONNA       CLEAR     10  -2  56 NE6       30.11R WCI   1
WASECA         PTCLDY    12   0  57 NE5       30.12R WCI   4
ALBERT LEA     PTCLDY    12   0  57 NE7       30.09R WCI   2
$$
MNZ078>079-086>088-094>096-110000-
   Southeast Minnesota

CITY           SKY/WX    TMP DP  RH WIND       PRES   REMARKS
ROCHESTER      CLOUDY     8  -1  66 NW8       30.08R WCI  -4
RED WING       PTCLDY     9  -6  52 N3        30.15R
STANTON        MOCLDY    10  -1  60 NE3       30.13R
DODGE CENTER   CLEAR     10  -2  56 NE8       30.08R WCI  -1
WINONA         CLEAR     12   0  57 NW7       30.14S WCI   2
AUSTIN         CLEAR      9   0  66 N7        30.09R WCI  -3
PRESTON        CLOUDY     7  -3  63 N8        30.08R WCI  -6
$$
ABBREVIATIONS USED IN REMARKS
   TC - TEMPERATURES IN CELSIUS
  WCI - WIND CHILL INDEX
   HX - HEAT INDEX
  VSB - VISIBILITY
$$




USA.gov is the U.S. government's official web portal to all federal, state and local government web resources and services.